| time (UTC) | temp C | wind direction | speed KPH | gust KPH | rain 1hr cm | rain 24hr cm | rain mn cm | humidity % | barometer mb |
| 20260507235101 | 18 | 1 | 0.0 | 0.0 | 0.00 | 0.00 | 0.00 | 83 | 1014.6 |
| 20260507234509 | 18 | 349 | 0.0 | 1.6 | 0.00 | 0.00 | 0.00 | 84 | 1014.7 |
| 20260507234039 | 18 | 30 | 0.0 | 6.4 | 0.00 | 0.00 | 0.00 | 86 | 1014.6 |
| 20260507233556 | 17 | 30 | 0.0 | 8.0 | 0.00 | 0.00 | 0.00 | 86 | 1014.7 |
| 20260507233004 | 18 | 15 | 3.2 | 8.0 | 0.00 | 0.00 | 0.00 | 85 | 1014.8 |
| 20260507232521 | 18 | 15 | 0.0 | 4.8 | 0.00 | 0.00 | 0.00 | 86 | 1015.0 |
| 20260507232049 | 18 | 15 | 0.0 | 6.4 | 0.00 | 0.00 | 0.00 | 86 | 1014.9 |
| 20260507231602 | 18 | 16 | 1.6 | 6.4 | 0.00 | 0.00 | 0.00 | 86 | 1015.0 |
| 20260507231016 | 18 | 15 | 3.2 | 6.4 | 0.00 | 0.00 | 0.00 | 86 | 1015.0 |
| 20260507230542 | 18 | 15 | 0.0 | 4.8 | 0.00 | 0.00 | 0.00 | 86 | 1015.0 |
| 20260507230105 | 18 | 15 | 0.0 | 4.8 | 0.00 | 0.00 | 0.00 | 86 | 1015.1 |
| 20260507225509 | 18 | 345 | 0.0 | 3.2 | 0.00 | 0.00 | 0.00 | 86 | 1015.1 |
| 20260507225044 | 18 | 9 | 0.0 | 6.4 | 0.00 | 0.00 | 0.00 | 86 | 1015.0 |
| 20260507224555 | 18 | 14 | 3.2 | 6.4 | 0.00 | 0.00 | 0.00 | 85 | 1015.2 |
| 20260507224004 | 18 | 9 | 0.0 | 4.8 | 0.00 | 0.00 | 0.00 | 85 | 1015.2 |
| 20260507223521 | 18 | 9 | 0.0 | 3.2 | 0.00 | 0.00 | 0.00 | 85 | 1015.2 |
| 20260507223049 | 18 | 314 | 0.0 | 3.2 | 0.00 | 0.00 | 0.00 | 85 | 1015.2 |
| 20260507222606 | 18 | 300 | 0.0 | 1.6 | 0.00 | 0.00 | 0.00 | 85 | 1015.2 |
| 20260507222014 | 18 | 300 | 0.0 | 0.0 | 0.00 | 0.00 | 0.00 | 87 | 1015.2 |
| 20260507221542 | 17 | 300 | 0.0 | 0.0 | 0.00 | 0.00 | 0.00 | 87 | 1015.2 |
| 20260507221101 | 17 | 300 | 0.0 | 0.0 | 0.00 | 0.00 | 0.00 | 87 | 1015.1 |
| 20260507220515 | 18 | 300 | 0.0 | 0.0 | 0.00 | 0.00 | 0.00 | 86 | 1015.1 |
| 20260507220044 | 18 | 300 | 0.0 | 0.0 | 0.00 | 0.00 | 0.00 | 86 | 1015.0 |
| 20260507215554 | 18 | 300 | 0.0 | 0.0 | 0.00 | 0.00 | 0.00 | 87 | 1015.0 |
| 20260507215006 | 18 | 294 | 0.0 | 0.0 | 0.00 | 0.00 | 0.00 | 87 | 1015.0 |
| 20260507214552 | 17 | 294 | 0.0 | 0.0 | 0.00 | 0.00 | 0.00 | 88 | 1015.0 |
| 20260507214052 | 17 | 294 | 0.0 | 3.2 | 0.00 | 0.00 | 0.00 | 87 | 1015.0 |
| 20260507213509 | 17 | 294 | 0.0 | 3.2 | 0.00 | 0.00 | 0.00 | 87 | 1015.2 |
| 20260507213024 | 17 | 115 | 0.0 | 0.0 | 0.00 | 0.00 | 0.00 | 87 | 1015.2 |
| 20260507212557 | 17 | 114 | 0.0 | 0.0 | 0.00 | 0.00 | 0.00 | 87 | 1015.1 |
| 20260507212010 | 18 | 114 | 0.0 | 0.0 | 0.00 | 0.00 | 0.00 | 87 | 1015.3 |
| 20260507211540 | 18 | 114 | 0.0 | 0.0 | 0.00 | 0.00 | 0.00 | 87 | 1015.3 |
| 20260507211059 | 18 | 114 | 0.0 | 0.0 | 0.00 | 0.00 | 0.00 | 86 | 1015.1 |
| 20260507210512 | 18 | 114 | 0.0 | 0.0 | 0.00 | 0.00 | 0.00 | 86 | 1015.2 |
| 20260507210051 | 18 | 114 | 0.0 | 0.0 | 0.00 | 0.00 | 0.00 | 86 | 1015.3 |
| 20260507205608 | 18 | 114 | 0.0 | 0.0 | 0.00 | 0.00 | 0.00 | 86 | 1015.2 |
| 20260507205018 | 18 | 114 | 0.0 | 0.0 | 0.00 | 0.00 | 0.00 | 86 | 1015.2 |
| 20260507204547 | 18 | 114 | 0.0 | 0.0 | 0.00 | 0.00 | 0.00 | 86 | 1015.2 |
| 20260507204107 | 18 | 114 | 0.0 | 0.0 | 0.00 | 0.00 | 0.00 | 86 | 1015.2 |
| 20260507203532 | 18 | 114 | 0.0 | 0.0 | 0.00 | 0.00 | 0.00 | 86 | 1015.2 |
| 20260507203052 | 18 | 114 | 0.0 | 0.0 | 0.00 | 0.00 | 0.00 | 86 | 1015.4 |
| 20260507202603 | 18 | 114 | 0.0 | 0.0 | 0.00 | 0.00 | 0.00 | 86 | 1015.4 |
| 20260507202015 | 18 | 114 | 0.0 | 0.0 | 0.00 | 0.00 | 0.00 | 86 | 1015.4 |
| 20260507201547 | 18 | 114 | 0.0 | 0.0 | 0.00 | 0.00 | 0.00 | 86 | 1015.5 |
| 20260507201106 | 18 | 114 | 0.0 | 0.0 | 0.00 | 0.00 | 0.00 | 85 | 1015.4 |
| 20260507200512 | 18 | 115 | 0.0 | 0.0 | 0.00 | 0.00 | 0.00 | 85 | 1015.5 |
| 20260507200044 | 18 | 114 | 0.0 | 0.0 | 0.00 | 0.00 | 0.00 | 85 | 1015.4 |
| 20260507195555 | 18 | 114 | 0.0 | 0.0 | 0.00 | 0.00 | 0.00 | 85 | 1015.4 |
| 20260507195006 | 18 | 114 | 0.0 | 0.0 | 0.00 | 0.00 | 0.00 | 83 | 1015.5 |
| 20260507194605 | 18 | 114 | 0.0 | 0.0 | 0.00 | 0.00 | 0.00 | 84 | 1015.4 |
| 20260507194045 | 18 | 115 | 0.0 | 0.0 | 0.00 | 0.00 | 0.00 | 84 | 1015.4 |
| 20260507193606 | 18 | 114 | 0.0 | 0.0 | 0.00 | 0.00 | 0.00 | 83 | 1015.2 |
| 20260507193014 | 18 | 114 | 0.0 | 0.0 | 0.00 | 0.00 | 0.00 | 84 | 1015.1 |
| 20260507192544 | 18 | 114 | 0.0 | 0.0 | 0.00 | 0.00 | 0.00 | 84 | 1015.0 |
| 20260507192101 | 18 | 114 | 0.0 | 0.0 | 0.00 | 0.00 | 0.00 | 84 | 1015.2 |
| 20260507191512 | 18 | 114 | 0.0 | 0.0 | 0.00 | 0.00 | 0.00 | 84 | 1015.0 |
| 20260507191041 | 18 | 114 | 0.0 | 0.0 | 0.00 | 0.00 | 0.00 | 84 | 1015.1 |
| 20260507190555 | 18 | 114 | 0.0 | 0.0 | 0.00 | 0.00 | 0.00 | 84 | 1015.0 |
| 20260507190005 | 18 | 114 | 0.0 | 0.0 | 0.00 | 0.00 | 0.00 | 83 | 1015.0 |
| 20260507185521 | 18 | 114 | 0.0 | 0.0 | 0.00 | 0.00 | 0.00 | 82 | 1014.8 |
| 20260507185051 | 18 | 114 | 0.0 | 0.0 | 0.00 | 0.00 | 0.00 | 81 | 1014.8 |
| 20260507184514 | 19 | 114 | 0.0 | 1.6 | 0.00 | 0.00 | 0.00 | 81 | 1014.9 |
| 20260507184033 | 19 | 114 | 0.0 | 1.6 | 0.00 | 0.00 | 0.00 | 81 | 1015.0 |
| 20260507183549 | 19 | 114 | 0.0 | 1.6 | 0.00 | 0.00 | 0.00 | 80 | 1014.9 |
| 20260507183105 | 19 | 114 | 0.0 | 4.8 | 0.00 | 0.00 | 0.00 | 81 | 1014.9 |
| 20260507182510 | 19 | 108 | 0.0 | 4.8 | 0.00 | 0.00 | 0.00 | 79 | 1015.0 |
| 20260507182021 | 19 | 75 | 0.0 | 1.6 | 0.00 | 0.00 | 0.00 | 79 | 1014.8 |
| 20260507181546 | 20 | 44 | 0.0 | 0.0 | 0.00 | 0.00 | 0.00 | 78 | 1014.9 |
| 20260507181102 | 20 | 44 | 0.0 | 0.0 | 0.00 | 0.00 | 0.00 | 78 | 1015.0 |
| 20260507180512 | 20 | 44 | 0.0 | 0.0 | 0.00 | 0.00 | 0.00 | 78 | 1014.8 |
| 20260507180044 | 20 | 44 | 0.0 | 0.0 | 0.00 | 0.00 | 0.00 | 77 | 1014.9 |
| 20260507175602 | 20 | 44 | 0.0 | 0.0 | 0.00 | 0.00 | 0.00 | 77 | 1014.9 |
| 20260507175009 | 20 | 45 | 0.0 | 0.0 | 0.00 | 0.00 | 0.00 | 76 | 1015.0 |
| 20260507174544 | 20 | 44 | 0.0 | 0.0 | 0.00 | 0.00 | 0.00 | 75 | 1014.8 |
| 20260507174052 | 20 | 45 | 0.0 | 0.0 | 0.00 | 0.00 | 0.00 | 74 | 1014.8 |
| 20260507173503 | 21 | 45 | 0.0 | 0.0 | 0.00 | 0.00 | 0.00 | 73 | 1014.8 |
| 20260507173020 | 21 | 45 | 0.0 | 0.0 | 0.00 | 0.00 | 0.00 | 72 | 1014.7 |
| 20260507172549 | 21 | 45 | 0.0 | 0.0 | 0.00 | 0.00 | 0.00 | 72 | 1014.7 |
| 20260507172101 | 21 | 44 | 0.0 | 0.0 | 0.00 | 0.00 | 0.00 | 71 | 1014.5 |
| 20260507171510 | 22 | 45 | 0.0 | 0.0 | 0.00 | 0.00 | 0.00 | 70 | 1014.5 |
| 20260507171024 | 22 | 44 | 0.0 | 1.6 | 0.00 | 0.00 | 0.00 | 69 | 1014.5 |
| 20260507170554 | 22 | 45 | 0.0 | 1.6 | 0.00 | 0.00 | 0.00 | 69 | 1014.4 |
| 20260507170113 | 22 | 44 | 0.0 | 4.8 | 0.00 | 0.00 | 0.00 | 69 | 1014.5 |
| 20260507165514 | 22 | 45 | 1.6 | 6.4 | 0.00 | 0.00 | 0.00 | 69 | 1014.5 |
| 20260507165042 | 22 | 45 | 0.0 | 6.4 | 0.00 | 0.00 | 0.00 | 68 | 1014.6 |
| 20260507164605 | 22 | 110 | 0.0 | 3.2 | 0.00 | 0.00 | 0.00 | 68 | 1014.5 |
| 20260507164002 | 22 | 108 | 0.0 | 3.2 | 0.00 | 0.00 | 0.00 | 68 | 1014.5 |
| 20260507163520 | 22 | 110 | 0.0 | 3.2 | 0.00 | 0.00 | 0.00 | 68 | 1014.5 |
| 20260507163044 | 22 | 80 | 0.0 | 3.2 | 0.00 | 0.00 | 0.00 | 68 | 1014.5 |
| 20260507162558 | 22 | 71 | 0.0 | 3.2 | 0.00 | 0.00 | 0.00 | 66 | 1014.5 |
| 20260507162004 | 23 | 108 | 0.0 | 3.2 | 0.00 | 0.00 | 0.00 | 65 | 1014.5 |
| 20260507161536 | 23 | 14 | 0.0 | 3.2 | 0.00 | 0.00 | 0.00 | 64 | 1014.4 |
| 20260507161045 | 23 | 71 | 0.0 | 3.2 | 0.00 | 0.00 | 0.00 | 63 | 1014.4 |
| 20260507160600 | 23 | 81 | 0.0 | 1.6 | 0.00 | 0.00 | 0.00 | 64 | 1014.6 |
| 20260507160004 | 24 | 31 | 0.0 | 1.6 | 0.00 | 0.00 | 0.00 | 64 | 1014.6 |
| 20260507155518 | 23 | 31 | 0.0 | 4.8 | 0.00 | 0.00 | 0.00 | 63 | 1014.6 |
| 20260507155049 | 23 | 31 | 0.0 | 4.8 | 0.00 | 0.00 | 0.00 | 63 | 1014.5 |
| 20260507154607 | 23 | 30 | 0.0 | 4.8 | 0.00 | 0.00 | 0.00 | 64 | 1014.5 |
| 20260507154008 | 23 | 30 | 0.0 | 6.4 | 0.00 | 0.00 | 0.00 | 65 | 1014.5 |
| 20260507153519 | 23 | 30 | 1.6 | 6.4 | 0.00 | 0.00 | 0.00 | 65 | 1014.4 |
| 20260507153048 | 23 | 24 | 0.0 | 4.8 | 0.00 | 0.00 | 0.00 | 66 | 1014.4 |
| 20260507152602 | 23 | 29 | 1.6 | 4.8 | 0.00 | 0.00 | 0.00 | 65 | 1014.5 |
| 20260507152009 | 23 | 32 | 0.0 | 3.2 | 0.00 | 0.00 | 0.00 | 66 | 1014.5 |
| 20260507151537 | 23 | 31 | 0.0 | 3.2 | 0.00 | 0.00 | 0.00 | 67 | 1014.5 |
| 20260507151049 | 23 | 31 | 0.0 | 6.4 | 0.00 | 0.00 | 0.00 | 67 | 1014.5 |
| 20260507150603 | 23 | 32 | 0.0 | 3.2 | 0.00 | 0.00 | 0.00 | 67 | 1014.6 |
| 20260507150013 | 23 | 24 | 0.0 | 6.4 | 0.00 | 0.00 | 0.00 | 67 | 1014.5 |
| 20260507145540 | 23 | 32 | 0.0 | 6.4 | 0.00 | 0.00 | 0.00 | 67 | 1014.6 |
| 20260507145056 | 23 | 42 | 0.0 | 3.2 | 0.00 | 0.00 | 0.00 | 68 | 1014.4 |
| 20260507144502 | 22 | 42 | 0.0 | 4.8 | 0.00 | 0.00 | 0.00 | 67 | 1014.6 |
| 20260507144016 | 23 | 41 | 0.0 | 6.4 | 0.00 | 0.00 | 0.00 | 66 | 1014.6 |
| 20260507143544 | 23 | 39 | 1.6 | 6.4 | 0.00 | 0.00 | 0.00 | 66 | 1014.7 |
| 20260507143110 | 23 | 38 | 1.6 | 6.4 | 0.00 | 0.00 | 0.00 | 66 | 1014.7 |
| 20260507142504 | 24 | 18 | 0.0 | 4.8 | 0.00 | 0.00 | 0.00 | 65 | 1014.7 |
| 20260507142018 | 23 | 134 | 0.0 | 3.2 | 0.00 | 0.00 | 0.00 | 66 | 1014.6 |
| 20260507141546 | 23 | 134 | 0.0 | 4.8 | 0.00 | 0.00 | 0.00 | 66 | 1014.6 |
| 20260507141102 | 23 | 108 | 0.0 | 4.8 | 0.00 | 0.00 | 0.00 | 67 | 1014.8 |
| 20260507140507 | 23 | 108 | 0.0 | 6.4 | 0.00 | 0.00 | 0.00 | 67 | 1014.8 |
| 20260507140038 | 23 | 44 | 3.2 | 6.4 | 0.00 | 0.00 | 0.00 | 67 | 1014.7 |
| 20260507135550 | 23 | 44 | 0.0 | 9.7 | 0.00 | 0.00 | 0.00 | 67 | 1014.7 |
| 20260507135101 | 23 | 44 | 3.2 | 9.7 | 0.00 | 0.00 | 0.00 | 66 | 1014.6 |
| 20260507134508 | 23 | 51 | 0.0 | 8.0 | 0.00 | 0.00 | 0.00 | 67 | 1014.7 |
| 20260507134035 | 23 | 58 | 0.0 | 4.8 | 0.00 | 0.00 | 0.00 | 68 | 1014.7 |
| 20260507133549 | 23 | 39 | 0.0 | 6.4 | 0.00 | 0.00 | 0.00 | 68 | 1014.6 |
| 20260507133110 | 23 | 32 | 1.6 | 8.0 | 0.00 | 0.00 | 0.00 | 67 | 1014.7 |
| 20260507132510 | 23 | 34 | 1.6 | 8.0 | 0.00 | 0.00 | 0.00 | 67 | 1014.9 |
| 20260507132037 | 23 | 32 | 0.0 | 3.2 | 0.00 | 0.00 | 0.00 | 67 | 1014.8 |
| 20260507131609 | 23 | 108 | 0.0 | 6.4 | 0.00 | 0.00 | 0.00 | 67 | 1014.9 |
| 20260507131106 | 23 | 24 | 0.0 | 8.0 | 0.00 | 0.00 | 0.00 | 67 | 1014.9 |
| 20260507130512 | 23 | 24 | 0.0 | 4.8 | 0.00 | 0.00 | 0.00 | 67 | 1014.9 |
| 20260507130042 | 23 | 20 | 1.6 | 4.8 | 0.00 | 0.00 | 0.00 | 67 | 1014.8 |
| 20260507125556 | 23 | 57 | 0.0 | 6.4 | 0.00 | 0.00 | 0.00 | 67 | 1014.9 |
| 20260507125003 | 23 | 50 | 3.2 | 6.4 | 0.00 | 0.00 | 0.00 | 66 | 1014.9 |
| 20260507124521 | 23 | 37 | 0.0 | 8.0 | 0.00 | 0.00 | 0.00 | 67 | 1014.8 |
| 20260507124045 | 23 | 32 | 3.2 | 8.0 | 0.00 | 0.00 | 0.00 | 66 | 1014.8 |
| 20260507123600 | 23 | 51 | 3.2 | 6.4 | 0.00 | 0.00 | 0.00 | 65 | 1014.9 |
| 20260507123005 | 23 | 51 | 1.6 | 6.4 | 0.00 | 0.00 | 0.00 | 65 | 1015.0 |
| 20260507122536 | 23 | 65 | 0.0 | 9.7 | 0.00 | 0.00 | 0.00 | 66 | 1015.0 |
| 20260507122049 | 23 | 38 | 1.6 | 9.7 | 0.00 | 0.00 | 0.00 | 65 | 1015.0 |
| 20260507121603 | 23 | 44 | 1.6 | 8.0 | 0.00 | 0.00 | 0.00 | 65 | 1015.1 |
| 20260507121010 | 23 | 99 | 1.6 | 4.8 | 0.00 | 0.00 | 0.00 | 64 | 1015.1 |
| 20260507120537 | 23 | 108 | 1.6 | 6.4 | 0.00 | 0.00 | 0.00 | 64 | 1015.0 |
| 20260507120053 | 24 | 108 | 0.0 | 6.4 | 0.00 | 0.00 | 0.00 | 64 | 1015.1 |
| 20260507115501 | 23 | 49 | 0.0 | 4.8 | 0.00 | 0.00 | 0.00 | 65 | 1015.2 |
| 20260507115020 | 23 | 43 | 1.6 | 6.4 | 0.00 | 0.00 | 0.00 | 66 | 1015.0 |
| 20260507114547 | 23 | 44 | 1.6 | 6.4 | 0.00 | 0.00 | 0.00 | 66 | 1015.0 |
| 20260507114101 | 23 | 44 | 0.0 | 6.4 | 0.00 | 0.00 | 0.00 | 66 | 1015.0 |
| 20260507113510 | 23 | 44 | 1.6 | 8.0 | 0.00 | 0.00 | 0.00 | 67 | 1015.1 |
| 20260507113041 | 23 | 32 | 4.8 | 8.0 | 0.00 | 0.00 | 0.00 | 66 | 1015.2 |
| 20260507112600 | 23 | 58 | 0.0 | 8.0 | 0.00 | 0.00 | 0.00 | 67 | 1015.0 |
| 20260507112005 | 22 | 31 | 1.6 | 8.0 | 0.00 | 0.00 | 0.00 | 68 | 1014.9 |
| 20260507111533 | 22 | 18 | 4.8 | 9.7 | 0.00 | 0.00 | 0.00 | 67 | 1015.1 |
| 20260507111051 | 22 | 44 | 4.8 | 9.7 | 0.00 | 0.00 | 0.00 | 68 | 1015.1 |
| 20260507110603 | 22 | 18 | 0.0 | 8.0 | 0.00 | 0.00 | 0.00 | 70 | 1015.1 |
| 20260507110012 | 22 | 18 | 3.2 | 8.0 | 0.00 | 0.00 | 0.00 | 70 | 1015.2 |
| 20260507105539 | 22 | 31 | 1.6 | 9.7 | 0.00 | 0.00 | 0.00 | 72 | 1015.1 |
| 20260507105053 | 21 | 27 | 3.2 | 11.3 | 0.00 | 0.00 | 0.00 | 70 | 1015.2 |
| 20260507104607 | 22 | 23 | 4.8 | 11.3 | 0.00 | 0.00 | 0.00 | 72 | 1015.3 |
| 20260507104015 | 21 | 35 | 6.4 | 11.3 | 0.00 | 0.00 | 0.00 | 72 | 1015.3 |
| 20260507103541 | 22 | 32 | 4.8 | 9.7 | 0.00 | 0.00 | 0.00 | 71 | 1015.3 |
| 20260507103058 | 22 | 27 | 1.6 | 8.0 | 0.00 | 0.00 | 0.00 | 71 | 1015.1 |
| 20260507102505 | 22 | 32 | 3.2 | 8.0 | 0.00 | 0.00 | 0.00 | 72 | 1015.1 |
| 20260507102037 | 21 | 26 | 3.2 | 9.7 | 0.00 | 0.00 | 0.00 | 73 | 1015.1 |
| 20260507101555 | 21 | 359 | 3.2 | 9.7 | 0.00 | 0.00 | 0.00 | 73 | 1015.1 |
| 20260507101108 | 21 | 359 | 4.8 | 11.3 | 0.00 | 0.00 | 0.00 | 72 | 1015.1 |
| 20260507100515 | 22 | 23 | 6.4 | 11.3 | 0.00 | 0.00 | 0.00 | 72 | 1015.1 |
| 20260507100047 | 22 | 32 | 4.8 | 11.3 | 0.00 | 0.00 | 0.00 | 72 | 1015.0 |
| 20260507095605 | 22 | 32 | 4.8 | 12.9 | 0.00 | 0.00 | 0.00 | 72 | 1015.2 |
| 20260507095015 | 22 | 29 | 8.0 | 12.9 | 0.00 | 0.00 | 0.00 | 72 | 1015.1 |
| 20260507094546 | 22 | 24 | 4.8 | 11.3 | 0.00 | 0.00 | 0.00 | 73 | 1015.1 |
| 20260507094105 | 21 | 38 | 4.8 | 11.3 | 0.00 | 0.00 | 0.00 | 74 | 1015.1 |
| 20260507093511 | 21 | 32 | 4.8 | 11.3 | 0.00 | 0.00 | 0.00 | 74 | 1015.2 |
| 20260507093048 | 21 | 31 | 6.4 | 11.3 | 0.00 | 0.00 | 0.00 | 73 | 1015.3 |
| 20260507092557 | 21 | 32 | 4.8 | 12.9 | 0.00 | 0.00 | 0.00 | 75 | 1015.3 |
| 20260507092005 | 21 | 18 | 6.4 | 12.9 | 0.00 | 0.00 | 0.00 | 74 | 1015.3 |
| 20260507091526 | 21 | 32 | 3.2 | 11.3 | 0.00 | 0.00 | 0.00 | 74 | 1015.2 |
| 20260507091054 | 21 | 30 | 4.8 | 11.3 | 0.00 | 0.00 | 0.00 | 74 | 1015.3 |
| 20260507090607 | 21 | 18 | 4.8 | 9.7 | 0.00 | 0.00 | 0.00 | 74 | 1015.2 |
| 20260507090013 | 21 | 29 | 3.2 | 11.3 | 0.00 | 0.00 | 0.00 | 74 | 1015.2 |
| 20260507085541 | 21 | 49 | 4.8 | 11.3 | 0.00 | 0.00 | 0.00 | 74 | 1015.1 |
| 20260507085056 | 21 | 30 | 4.8 | 11.3 | 0.00 | 0.00 | 0.00 | 74 | 1015.2 |
| 20260507084501 | 21 | 30 | 4.8 | 11.3 | 0.00 | 0.00 | 0.00 | 74 | 1015.3 |
| 20260507084033 | 21 | 30 | 4.8 | 11.3 | 0.00 | 0.00 | 0.00 | 74 | 1015.2 |
| 20260507083543 | 20 | 30 | 4.8 | 11.3 | 0.00 | 0.00 | 0.00 | 75 | 1015.2 |
| 20260507083101 | 20 | 15 | 3.2 | 9.7 | 0.00 | 0.00 | 0.00 | 75 | 1015.2 |
| 20260507082504 | 20 | 24 | 4.8 | 9.7 | 0.00 | 0.00 | 0.00 | 75 | 1015.1 |
| 20260507082032 | 20 | 23 | 1.6 | 11.3 | 0.00 | 0.00 | 0.00 | 76 | 1015.3 |
| 20260507081545 | 20 | 38 | 6.4 | 11.3 | 0.00 | 0.00 | 0.00 | 76 | 1015.2 |
| 20260507081059 | 20 | 15 | 3.2 | 12.9 | 0.00 | 0.00 | 0.00 | 75 | 1015.2 |
| 20260507080507 | 20 | 30 | 4.8 | 9.7 | 0.00 | 0.00 | 0.00 | 76 | 1015.0 |
| 20260507080039 | 20 | 350 | 3.2 | 9.7 | 0.00 | 0.00 | 0.00 | 76 | 1014.9 |
| 20260507075547 | 20 | 30 | 4.8 | 8.0 | 0.00 | 0.00 | 0.00 | 76 | 1014.9 |
| 20260507075105 | 20 | 24 | 1.6 | 9.7 | 0.00 | 0.00 | 0.00 | 76 | 1014.7 |
| 20260507074511 | 20 | 8 | 1.6 | 12.9 | 0.00 | 0.00 | 0.00 | 75 | 1014.7 |
| 20260507074040 | 20 | 6 | 4.8 | 12.9 | 0.00 | 0.00 | 0.00 | 75 | 1014.7 |
| 20260507073554 | 20 | 23 | 3.2 | 12.9 | 0.00 | 0.00 | 0.00 | 75 | 1014.8 |
| 20260507073107 | 20 | 20 | 4.8 | 12.9 | 0.00 | 0.00 | 0.00 | 75 | 1014.8 |
| 20260507072515 | 20 | 13 | 8.0 | 12.9 | 0.00 | 0.00 | 0.00 | 75 | 1014.8 |
| 20260507072043 | 20 | 15 | 3.2 | 9.7 | 0.00 | 0.00 | 0.00 | 75 | 1014.8 |
| 20260507071610 | 20 | 354 | 3.2 | 11.3 | 0.00 | 0.00 | 0.00 | 76 | 1014.9 |
| 20260507071007 | 20 | 23 | 4.8 | 9.7 | 0.00 | 0.00 | 0.00 | 76 | 1014.9 |
| 20260507070537 | 20 | 24 | 4.8 | 9.7 | 0.00 | 0.00 | 0.00 | 76 | 1014.9 |
| 20260507070052 | 20 | 15 | 3.2 | 9.7 | 0.00 | 0.00 | 0.00 | 77 | 1015.0 |
| 20260507065608 | 20 | 4 | 1.6 | 9.7 | 0.00 | 0.00 | 0.00 | 77 | 1014.7 |
| 20260507065028 | 20 | 2 | 0.0 | 11.3 | 0.00 | 0.00 | 0.00 | 79 | 1014.7 |
| 20260507064539 | 19 | 9 | 4.8 | 11.3 | 0.00 | 0.00 | 0.00 | 79 | 1014.7 |
| 20260507064053 | 19 | 255 | 0.0 | 8.0 | 0.00 | 0.00 | 0.00 | 80 | 1014.8 |
| 20260507063608 | 18 | 255 | 3.2 | 9.7 | 0.00 | 0.00 | 0.00 | 80 | 1014.6 |
| 20260507063013 | 18 | 314 | 4.8 | 9.7 | 0.00 | 0.00 | 0.00 | 81 | 1014.6 |
| 20260507062543 | 18 | 264 | 1.6 | 8.0 | 0.00 | 0.00 | 0.00 | 83 | 1014.6 |
| 20260507062057 | 18 | 288 | 1.6 | 9.7 | 0.00 | 0.00 | 0.00 | 83 | 1014.6 |
| 20260507061507 | 18 | 15 | 3.2 | 9.7 | 0.00 | 0.00 | 0.00 | 83 | 1014.7 |
| 20260507061022 | 18 | 342 | 0.0 | 8.0 | 0.00 | 0.00 | 0.00 | 84 | 1014.8 |
| 20260507060551 | 18 | 4 | 0.0 | 6.4 | 0.00 | 0.00 | 0.00 | 84 | 1014.8 |
| 20260507060110 | 18 | 294 | 1.6 | 8.0 | 0.00 | 0.00 | 0.00 | 84 | 1014.7 |
| 20260507055507 | 18 | 266 | 1.6 | 9.7 | 0.00 | 0.00 | 0.00 | 84 | 1014.7 |
| 20260507055037 | 18 | 307 | 1.6 | 9.7 | 0.00 | 0.00 | 0.00 | 84 | 1014.6 |
| 20260507054553 | 18 | 290 | 3.2 | 8.0 | 0.00 | 0.00 | 0.00 | 84 | 1014.6 |
| 20260507054001 | 18 | 315 | 1.6 | 9.7 | 0.00 | 0.00 | 0.00 | 85 | 1014.4 |
| 20260507053534 | 17 | 358 | 3.2 | 9.7 | 0.00 | 0.00 | 0.00 | 84 | 1014.5 |
| 20260507053114 | 17 | 255 | 3.2 | 9.7 | 0.00 | 0.00 | 0.00 | 84 | 1014.4 |
| 20260507052604 | 17 | 288 | 4.8 | 12.9 | 0.00 | 0.00 | 0.00 | 84 | 1014.3 |
| 20260507052014 | 17 | 307 | 3.2 | 11.3 | 0.00 | 0.00 | 0.00 | 85 | 1014.1 |
| 20260507051545 | 17 | 294 | 3.2 | 9.7 | 0.00 | 0.00 | 0.00 | 85 | 1013.9 |
| 20260507051058 | 17 | 240 | 3.2 | 8.0 | 0.00 | 0.00 | 0.00 | 84 | 1014.0 |
| 20260507050507 | 17 | 293 | 4.8 | 8.0 | 0.00 | 0.00 | 0.00 | 84 | 1013.9 |
| 20260507050040 | 17 | 288 | 1.6 | 11.3 | 0.00 | 0.00 | 0.00 | 84 | 1013.7 |
| 20260507045559 | 17 | 255 | 6.4 | 11.3 | 0.00 | 0.00 | 0.00 | 84 | 1013.7 |
| 20260507045009 | 17 | 300 | 1.6 | 9.7 | 0.00 | 0.00 | 0.00 | 85 | 1013.6 |
| 20260507044540 | 17 | 265 | 1.6 | 12.9 | 0.00 | 0.00 | 0.00 | 85 | 1013.6 |
| 20260507044054 | 17 | 307 | 3.2 | 12.9 | 0.00 | 0.00 | 0.00 | 85 | 1013.5 |
| 20260507043501 | 17 | 314 | 3.2 | 8.0 | 0.00 | 0.00 | 0.00 | 85 | 1013.4 |
| 20260507043036 | 17 | 288 | 3.2 | 9.7 | 0.00 | 0.00 | 0.00 | 85 | 1013.5 |
| 20260507042545 | 17 | 15 | 1.6 | 8.0 | 0.00 | 0.00 | 0.00 | 85 | 1013.4 |
| 20260507042104 | 17 | 271 | 1.6 | 8.0 | 0.00 | 0.00 | 0.00 | 84 | 1013.4 |
| 20260507041513 | 17 | 293 | 1.6 | 8.0 | 0.00 | 0.00 | 0.00 | 83 | 1013.3 |
| 20260507041046 | 17 | 285 | 3.2 | 8.0 | 0.00 | 0.00 | 0.00 | 83 | 1013.3 |
| 20260507040559 | 17 | 294 | 1.6 | 8.0 | 0.00 | 0.00 | 0.00 | 83 | 1013.2 |
| 20260507040009 | 17 | 17 | 0.0 | 9.7 | 0.00 | 0.00 | 0.00 | 82 | 1013.1 |
| 20260507035538 | 17 | 342 | 3.2 | 11.3 | 0.00 | 0.00 | 0.00 | 81 | 1013.0 |
| 20260507035056 | 18 | 294 | 3.2 | 11.3 | 0.00 | 0.00 | 0.00 | 81 | 1013.0 |
| 20260507034505 | 18 | 223 | 3.2 | 11.3 | 0.00 | 0.00 | 0.00 | 80 | 1012.9 |
| 20260507034019 | 18 | 288 | 1.6 | 11.3 | 0.00 | 0.00 | 0.00 | 80 | 1012.9 |
| 20260507033549 | 17 | 294 | 3.2 | 8.0 | 0.00 | 0.00 | 0.00 | 79 | 1012.9 |
| 20260507033107 | 17 | 285 | 3.2 | 11.3 | 0.00 | 0.00 | 0.00 | 79 | 1012.9 |
| 20260507032512 | 17 | 338 | 1.6 | 11.3 | 0.00 | 0.00 | 0.00 | 80 | 1012.9 |
| 20260507032045 | 17 | 307 | 3.2 | 8.0 | 0.00 | 0.00 | 0.00 | 80 | 1012.9 |
| 20260507031559 | 17 | 288 | 3.2 | 9.7 | 0.00 | 0.00 | 0.00 | 80 | 1012.8 |
| 20260507031013 | 17 | 294 | 1.6 | 9.7 | 0.00 | 0.00 | 0.00 | 80 | 1012.9 |
| 20260507030539 | 17 | 265 | 3.2 | 8.0 | 0.00 | 0.00 | 0.00 | 80 | 1012.7 |
| 20260507030057 | 17 | 11 | 0.0 | 6.4 | 0.00 | 0.00 | 0.00 | 80 | 1012.5 |
| 20260507025507 | 17 | 15 | 1.6 | 6.4 | 0.00 | 0.00 | 0.00 | 81 | 1012.6 |
| 20260507025044 | 17 | 335 | 0.0 | 3.2 | 0.00 | 0.00 | 0.00 | 81 | 1012.5 |
| 20260507024603 | 17 | 285 | 0.0 | 6.4 | 0.00 | 0.00 | 0.00 | 82 | 1012.4 |
| 20260507024006 | 17 | 294 | 0.0 | 6.4 | 0.00 | 0.00 | 0.00 | 83 | 1012.5 |
| 20260507023536 | 17 | 294 | 0.0 | 8.0 | 0.00 | 0.00 | 0.00 | 84 | 1012.5 |
| 20260507023053 | 17 | 294 | 3.2 | 8.0 | 0.00 | 0.00 | 0.00 | 86 | 1012.4 |
| 20260507022502 | 17 | 294 | 0.0 | 4.8 | 0.00 | 0.00 | 0.00 | 87 | 1012.3 |
| 20260507022019 | 17 | 314 | 1.6 | 6.4 | 0.00 | 0.00 | 0.00 | 88 | 1012.5 |
| 20260507021549 | 17 | 293 | 1.6 | 8.0 | 0.00 | 0.00 | 0.00 | 88 | 1012.4 |
| 20260507021107 | 17 | 294 | 1.6 | 9.7 | 0.00 | 0.00 | 0.00 | 88 | 1012.3 |
| 20260507020514 | 17 | 294 | 1.6 | 9.7 | 0.00 | 0.00 | 0.00 | 88 | 1012.2 |
| 20260507020045 | 17 | 342 | 3.2 | 8.0 | 0.00 | 0.00 | 0.00 | 88 | 1012.2 |
| 20260507015605 | 17 | 9 | 1.6 | 11.3 | 0.00 | 0.00 | 0.00 | 88 | 1012.2 |
| 20260507015021 | 17 | 4 | 3.2 | 11.3 | 0.00 | 0.00 | 0.00 | 88 | 1012.3 |
| 20260507014551 | 17 | 3 | 4.8 | 11.3 | 0.00 | 0.00 | 0.00 | 88 | 1012.2 |
| 20260507014059 | 17 | 15 | 3.2 | 11.3 | 0.00 | 0.00 | 0.00 | 88 | 1012.2 |
| 20260507013508 | 17 | 342 | 3.2 | 11.3 | 0.00 | 0.00 | 0.00 | 88 | 1012.3 |
| 20260507013038 | 17 | 96 | 4.8 | 11.3 | 0.00 | 0.00 | 0.00 | 88 | 1012.2 |
| 20260507012558 | 17 | 351 | 3.2 | 8.0 | 0.00 | 0.00 | 0.00 | 88 | 1012.0 |
| 20260507012005 | 17 | 2 | 3.2 | 12.9 | 0.00 | 0.00 | 0.00 | 87 | 1012.0 |
| 20260507011539 | 17 | 328 | 3.2 | 12.9 | 0.00 | 0.00 | 0.00 | 88 | 1012.0 |
| 20260507011050 | 17 | 338 | 3.2 | 9.7 | 0.00 | 0.00 | 0.00 | 88 | 1012.0 |
| 20260507010610 | 17 | 340 | 4.8 | 9.7 | 0.00 | 0.00 | 0.00 | 88 | 1011.9 |
| 20260507010022 | 17 | 335 | 1.6 | 6.4 | 0.00 | 0.00 | 0.00 | 88 | 1012.0 |
| 20260507005545 | 17 | 319 | 0.0 | 4.8 | 0.00 | 0.00 | 0.00 | 88 | 1012.0 |
| 20260507005100 | 17 | 15 | 1.6 | 4.8 | 0.00 | 0.00 | 0.00 | 88 | 1012.0 |
| 20260507004508 | 17 | 307 | 0.0 | 6.4 | 0.00 | 0.00 | 0.00 | 88 | 1012.0 |
| 20260507004039 | 17 | 6 | 0.0 | 6.4 | 0.00 | 0.00 | 0.00 | 88 | 1012.0 |
| 20260507003555 | 17 | 3 | 0.0 | 8.0 | 0.00 | 0.00 | 0.00 | 88 | 1012.0 |
| 20260507003003 | 17 | 9 | 1.6 | 8.0 | 0.00 | 0.00 | 0.00 | 88 | 1012.1 |
| 20260507002532 | 17 | 7 | 1.6 | 8.0 | 0.00 | 0.00 | 0.00 | 88 | 1012.2 |
| 20260507002049 | 17 | 321 | 0.0 | 4.8 | 0.00 | 0.00 | 0.00 | 88 | 1012.1 |
| 20260507001605 | 17 | 1 | 0.0 | 6.4 | 0.00 | 0.00 | 0.00 | 88 | 1012.1 |
| 20260507001014 | 17 | 15 | 0.0 | 6.4 | 0.00 | 0.00 | 0.00 | 88 | 1012.1 |
| 20260507000540 | 17 | 4 | 0.0 | 3.2 | 0.00 | 0.00 | 0.00 | 88 | 1012.1 |
| 20260507000055 | 17 | 8 | 0.0 | 3.2 | 0.00 | 0.00 | 0.00 | 89 | 1012.2 |
| 20260506235505 | 17 | 8 | 0.0 | 3.2 | 0.00 | 0.00 | 0.00 | 89 | 1012.2 |